Regional Weather Roundup
Issued by NWS

Home | Current Version | Previous Version | Text Only | Print | Product List | Glossary Off
Versions: 1 2 3 4 5 6 7 8 9 10 11 12 13 14 15 16 17 18 19 20 21 22 23 24 25 26 27 28 29 30 31 32 33 34 35 36 37 38 39 40 41 42 43 44 45 46 47 48 49 50

000
ASUS43 KBIS 300220
RWRND

NORTH DAKOTA REGIONAL WEATHER ROUNDUP
NATIONAL WEATHER SERVICE BISMARCK ND
900 PM CDT FRI AUG 29 2014

NOTE: "FAIR" INDICATES FEW OR NO CLOUDS BELOW 12,000 FEET WITH NO
SIGNIFICANT WEATHER AND/OR OBSTRUCTIONS TO VISIBILITY.


NDZ001>003-009>011-017-300300-
NORTHWEST NORTH DAKOTA

CITY           SKY/WX    TMP DP  RH WIND       PRES   REMARKS
WILLISTON      MOCLDY    65  49  56 SE3       29.95F
MINOT          CLEAR     57  51  80 CALM      29.96R
MINOT AFB      CLEAR     62  52  69 E3        29.95S
$$

NDZ018>021-031>035-040>046-300300-
SOUTHWEST NORTH DAKOTA

CITY           SKY/WX    TMP DP  RH WIND       PRES   REMARKS
BISMARCK       CLEAR     64  54  69 NE8       29.96R
DICKINSON      CLEAR     61  51  70 NE5       29.97S
GARRISON         N/A     60  53  77 NE3       29.96S
HETTINGER ARPT CLEAR     59  52  77 NE7       29.99R
$$

NDZ004>008-012>016-024-026-027-054-300300-
NORTHEAST NORTH DAKOTA

CITY           SKY/WX    TMP DP  RH WIND       PRES   REMARKS
GRAND FORKS    CLOUDY    62  57  83 N16       29.88R
GRND FRKS AFB  CLOUDY    61  61 100 N14       29.90R
DEVILS LAKE    PTCLDY    57  48  72 N8        29.94R
$$

NDZ022-023-025-028>030-036>039-047>053-300300-
SOUTHEAST NORTH DAKOTA

CITY           SKY/WX    TMP DP  RH WIND       PRES   REMARKS
FARGO          CLOUDY    65  58  78 N23       29.83R
JAMESTOWN      CLOUDY    61  54  77 N10       29.92R
$$



USA.gov is the U.S. government's official web portal to all federal, state and local government web resources and services.